This is the latest recevied weather packets stored in our database for station/object SV2ASS-2. If no packets are shown the sender has not sent any weather packets the latest 10 day(s).
| Time | Temp. | Humidity | Pressure | Rain* | Wind** | Luminosity | Snow |
|---|---|---|---|---|---|---|---|
| 1777879664 | 11.67° C | 50% | 1022.6 hPa | - | - | - | - |
| 1777878764 | 11.11° C | 50% | 1022.5 hPa | - | - | - | - |
| 1777877864 | 10.56° C | 52% | 1022.6 hPa | - | - | - | - |
| 1777876964 | 10° C | 54% | 1022.5 hPa | - | - | - | - |
| 1777876064 | 9.44° C | 54% | 1022.5 hPa | - | - | - | - |
| 1777875164 | 9.44° C | 54% | 1022.4 hPa | - | - | - | - |
| 1777874264 | 9.44° C | 51% | 1022.3 hPa | - | - | - | - |
| 1777873363 | 8.89° C | 54% | 1022.4 hPa | - | - | - | - |
| 1777872463 | 8.89° C | 50% | 1022.7 hPa | - | - | - | - |
| 1777871563 | 10.56° C | 53% | 1022.4 hPa | - | - | - | - |
| 1777870663 | 8.89° C | 56% | 1022.5 hPa | - | - | - | - |
| 1777869762 | 6.11° C | 59% | 1022.3 hPa | - | - | - | - |
| 1777868862 | 5.56° C | 60% | 1022.4 hPa | - | - | - | - |
| 1777867962 | 5.56° C | 57% | 1022.2 hPa | - | - | - | - |
| 1777867062 | 5.56° C | 55% | 1022.3 hPa | - | - | - | - |
| 1777866162 | 5.56° C | 56% | 1022.2 hPa | - | - | - | - |
| 1777865262 | 5.56° C | 56% | 1022.1 hPa | - | - | - | - |
| 1777864362 | 5.56° C | 54% | 1022.2 hPa | - | - | - | - |
| 1777863465 | 6.11° C | 54% | 1022.2 hPa | - | - | - | - |
| 1777862565 | 6.11° C | 54% | 1022.3 hPa | - | - | - | - |
| 1777861665 | 6.67° C | 53% | 1022.4 hPa | - | - | - | - |
| 1777860764 | 6.67° C | 52% | 1022.4 hPa | - | - | - | - |
| 1777859864 | 6.67° C | 52% | 1022.4 hPa | - | - | - | - |
| 1777858964 | 7.22° C | 53% | 1022.3 hPa | - | - | - | - |
| 1777858064 | 7.22° C | 50% | 1022.1 hPa | - | - | - | - |
* Rain since midnight (hover to see other rain measurements)
** Current wind speed in m/s (hover to see current wind gust speed)